Weather in Katayga

Russia / Tomsk District     58°44′52″N   87°55′41″E
temp.,
°C
wind,
m/s
gust,
m/s
humid.,
%
clouds,
%
prec.,
mm/h
press.,
hPa
HPBL,
m
16 may, sun
sun1601:00+2ene258458 0.1 101794
04:00+1ne258286 0.0 1018103
07:00+3e3675100 0.0 1018238
10:00+7e3355100 0.0 1017716
13:00+10ene2237100 0.0 10161214
16:00+10ne223449 0.0 10151307
19:00+10nne23355 0.0 10141349
22:00+4ene22596 0.0 101639
17 may, mon
mon1701:00+2e22588 0.0 101618
04:00+2e1155100 0.0 101716
07:00+5ese1248100 0.0 1017130
10:00+9ssw1143100 0.0 10161119
13:00+9wsw325498 0.0 10161363
16:00+11w134486 0.0 10151614
19:00+11wnw1348100 0.0 10141569
22:00+8ene1166100 0.0 101316
18 may, tue
tue1801:00+7e2371100 0.0 101272
04:00+6ese247894 0.0 1011103
07:00+6e2679100 0.0 1010234
10:00+6e3779100 0.1 1009416
13:00+7ese1477100 0.3 1008268
16:00+10ese1468100 0.9 1007860
19:00+11nne2651100 1.0 1006373
22:00+5nne3115212 0.0 1008238
19 may, wed
wed1901:00+3nne41356100 0.0 1009417
04:00+2n41256100 0.0 1010442
07:00+3n411570 0.0 1011500
10:00+6n57385 0.0 10111640
13:00+8nnw57305 0.0 10112236
16:00+9nnw6726100 0.0 10112868
19:00+7nnw573487 0.0 10112406
22:00+2nnw39495 0.0 1012277
20 may, thu
thu2001:00−1nnw310585 0.0 1013302
04:00−2nw310665 0.0 1012291
07:00+1nw51156100 0.0 1012578
10:00+4nnw61248100 0.1 10121700
13:00+6n61256100 0.4 10121751
16:00+8ne41045100 0.1 10131859
19:00+9ne475269 0.2 10141109
22:00+4nnw007512 0.0 101610